EST,Max TemperatureF,Mean TemperatureF,Min TemperatureF,Max Dew PointF,MeanDew PointF,Min DewpointF,Max Humidity, Mean Humidity, Min Humidity, Max Sea Level PressureIn, Mean Sea Level PressureIn, Min Sea Level PressureIn, Max VisibilityMiles, Mean VisibilityMiles, Min VisibilityMiles, Max Wind SpeedMPH, Mean Wind SpeedMPH, Max Gust SpeedMPH,PrecipitationIn, CloudCover, Events, WindDirDegrees
2011-12-1,35,28,21,30,23,10,87,76,54,30.35,30.22,30.07,10,6,2,13,4,20,0.10,6,,328
2011-12-2,33,21,10,19,12,3,79,64,51,30.42,30.35,30.28,10,10,10,16,7,22,0.00,0,,248
2011-12-3,39,36,33,32,30,25,87,78,65,30.26,30.11,29.97,10,5,1,25,14,32,0.09,7,,214
2011-12-4,37,32,28,30,27,18,87,75,64,30.27,29.98,29.76,10,9,3,14,7,21,0.07,8,,338
2011-12-5,28,24,21,19,15,10,74,63,47,30.42,30.36,30.27,10,10,5,14,7,22,0.00,8,,339
2011-12-6,55,20,15,12,9,5,73,62,47,30.41,30.24,30.04,10,10,10,10,6,,0.00,5,,275
2011-12-7,26,22,17,12,11,9,74,63,54,30.04,29.91,29.85,10,10,7,15,9,20,0.00,4,,250
2011-12-8,23,16,8,10,8,0,73,68,49,30.09,29.98,29.89,10,10,10,16,10,20,0.00,0,,258
2011-12-9,19,14,8,1,-1,-4,67,55,41,30.28,30.17,30.09,10,10,10,17,8,23,0.00,0,,262
2011-12-10,24,14,5,7,-1,-4,67,51,39,30.34,30.28,30.22,10,10,10,16,10,22,0.00,3,,244
2011-12-11,39,29,19,28,20,7,74,64,52,30.22,30.14,30.07,10,9,5,20,12,29,0.00,2,,210
2011-12-12,35,34,33,30,29,23,81,76,60,30.32,30.26,30.18,10,4,1,12,8,18,0.10,8,,219
2011-12-13,37,35,33,32,30,28,87,81,75,30.38,30.33,30.26,7,3,0,7,2,,0.01,8,,8
2011-12-14,39,36,32,36,33,27,93,86,80,30.26,29.93,29.57,3,1,0,9,3,,0.09,8,,148
2011-12-15,39,32,26,36,26,10,87,73,51,30.00,29.62,29.46,10,8,1,24,8,37,0.07,8,,282
2011-12-16,24,20,15,12,10,5,68,57,46,30.36,30.29,30.06,10,10,5,16,10,24,0.01,6,,315
2011-12-17,28,17,6,19,10,0,79,69,59,30.35,30.19,30.04,10,9,3,12,5,,0.00,4,,258
2011-12-18,37,32,26,28,21,16,75,67,59,30.09,29.92,29.62,10,10,9,17,9,26,0.00,5,,220
2011-12-19,35,30,26,28,21,14,81,65,52,30.26,29.96,29.62,10,10,5,12,7,20,0.00,7,,326
2011-12-20,33,30,26,18,15,12,69,57,48,30.26,30.04,29.80,10,10,10,14,6,22,0.00,5,,228
2011-12-21,35,24,12,21,17,7,80,67,48,29.83,29.71,29.63,10,9,4,9,5,,0.00,2,,268
2011-12-22,33,27,21,21,15,9,64,57,47,30.25,30.11,29.87,10,10,10,14,8,22,0.00,8,,319
2011-12-23,28,18,8,21,11,1,80,67,50,30.27,30.20,30.12,10,8,1,13,7,16,0.00,4,,243
2011-12-24,33,22,12,23,17,7,86,72,60,30.22,30.09,29.88,10,9,1,17,5,25,0.00,6,,227
2011-12-25,37,32,28,25,21,19,75,64,56,30.19,29.95,29.77,10,10,3,20,8,26,0.00,7,,281
2011-12-26,39,34,28,27,23,19,69,63,52,30.18,29.90,29.61,10,10,10,25,11,36,0.00,2,,211
2011-12-27,37,27,17,27,17,5,75,64,54,29.95,29.69,29.55,10,9,5,25,13,38,0.00,7,,313
2011-12-28,24,20,15,12,5,3,63,58,53,30.06,29.99,29.88,10,10,10,14,8,22,0.00,7,,348
2011-12-29,33,28,24,28,25,14,87,77,59,29.81,29.61,29.51,10,6,1,15,6,22,0.03,8,,138
2011-12-30,30,24,19,25,21,12,86,80,74,29.80,29.72,29.66,10,8,1,8,4,,0.00,5,,349
2011-12-31,37,24,12,30,21,5,86,79,73,29.95,29.86,29.77,10,8,0,12,4,,0.00,5,,187